SCP
0 0 -0 -0 -0 -0 0 0 0 0 0 0 0 0 0 -0 -0 -0 -0 -0 0 0 0 0 0 0 -0 -0 0 -0 -0 -0 0
0 0 -0 -0 -0 -0 0 0 0 0 0 0 0 0 0 0 -0 -0 -0 -0 0 0 0 0 0 0 -0 0 0 0 0 -0 -0
0 0 0 0 0 -0 0 0 0 0 0 0 0 0 0 0 -0 -0 -0 -0 -0 0 0 0 -0 0 0 0 0 0 0 0 -0
0 0 0 0 0 -0 0 0 0 0 0 0 0 0 0 0 0 -0 -0 -0 -0 -0 0 0 -0 -0 0 -0 0 0 0 0 0
0 0 0 0 0 0 0 0 0 0 0 0 0 0 1 0 0 0 -0 -0 -0 -0 -0 -0 -0 -0 0 0 0 0 0 0 0
0 0 0 0 0 0 0 0 0 1 1 0 0 0 0 1 1 0 0 0 -0 -0 -0 -0 -0 -0 -0 -0 -0 0 0 0 0
0 0 0 0 0 0 0 0 0 1 1 0 0 0 0 1 1 1 1 1 0 0 -0 -0 -0 -0 0 -0 -0 0 0 0 0
0 0 0 0 0 0 0 0 0 1 1 1 1 1 1 1 1 1 1 1 1 0 -0 -0 -0 -0 0 0 0 -0 0 0 0
0 0 0 0 0 0 0 0 0 1 1 1 1 1 1 1 1 1 1 1 1 1 0 -0 -0 -0 0 0 0 0 -0 -0 -0
0 0 0 0 0 0 1 0 0 0 1 2 1 1 1 1 1 1 1 1 1 1 0 0 -0 -0 -0 0 0 -0 0 -0 -0
0 0 0 0 0 0 0 0 0 0 1 2 1 1 1 1 1 1 1 1 1 1 0 1 1 0 -0 -0 -0 0 -0 -0 -0
0 0 0 0 0 0 0 0 1 1 1 1 1 1 1 1 1 1 1 1 1 1 1 1 0 0 0 0 -0 0 -0 0 0
0 0 0 0 2 0 0 1 0 1 1 1 1 1 1 1 1 1 1 1 1 1 1 1 0 0 0 0 0 0 0 -0 -0
0 0 0 0 3 3 2 1 1 1 1 1 1 1 0 0 1 1 1 1 2 1 1 1 1 0 0 0 0 -0 0 -0 0
0 0 0 0 0 1 3 2 2 2 1 1 1 1 1 1 1 1 1 1 1 1 1 1 1 0 0 0 0 -0 0 0 -0
0 0 0 0 0 0 0 2 3 2 2 1 0 1 1 1 1 1 1 1 1 0 0 0 0 0 0 0 0 1 0 0 -0
0 0 0 0 0 0 0 0 1 2 3 2 1 1 1 1 1 1 1 1 1 1 1 1 1 1 0 0 0 0 1 1 0
0 0 0 0 0 0 0 0 0 0 1 3 2 2 1 1 1 1 1 1 1 1 1 1 1 1 1 1 1 1 1 1 1
0 0 0 0 0 0 0 0 0 0 0 0 2 3 3 3 4 2 1 1 1 0 0 0 0 0 1 1 1 2 1 1 1
0 0 0 0 0 0 0 0 0 0 0 0 0 0 2 2 2 2 2 3 3 3 1 0 0 0 0 0 1 0 1 2 0
Wind_Speed_500mb
59 70 77 80 82 81 83 88 94 97 96 92 89 83 82 78 72 68 62 61 56 44 41 42 44 43 37 34 29 22 19 18 18
50 65 74 82 83 84 86 91 93 96 99 94 93 91 83 81 76 72 65 61 58 55 44 38 37 39 35 35 35 31 27 27 23
48 56 64 70 77 83 90 93 90 89 91 92 92 92 90 87 82 76 71 66 62 62 51 41 37 39 41 37 37 36 34 33 30
48 49 58 71 79 87 93 91 92 92 89 87 90 88 86 84 81 78 77 73 65 62 58 49 45 42 44 43 41 41 39 34 33
46 50 55 66 73 73 76 88 89 101 97 93 90 85 86 85 82 79 75 75 67 60 60 55 49 48 49 51 49 48 47 43 38
21 36 43 46 53 72 85 92 95 102 103 102 96 95 92 88 85 84 80 75 70 62 59 58 55 56 56 55 56 56 55 52 47
13 12 32 43 54 71 81 87 96 100 101 98 100 101 99 94 92 86 80 74 71 65 60 58 59 59 61 60 59 60 60 59 55
24 20 19 30 52 69 85 85 90 95 96 98 94 98 98 97 86 80 79 80 73 65 64 61 61 61 62 64 66 65 65 65 64
22 28 29 28 39 58 78 87 97 100 100 98 92 94 91 85 81 79 78 78 76 71 64 64 64 66 66 67 70 71 71 68 68
29 31 33 33 35 54 77 77 85 95 101 96 96 91 82 80 77 75 73 74 74 74 73 67 69 70 71 74 74 72 72 72 73
36 38 42 46 42 43 72 77 73 82 82 96 96 92 83 76 75 72 71 71 73 72 74 72 73 73 74 74 75 73 70 70 72
33 33 41 47 47 51 60 74 85 83 85 92 88 88 85 77 72 70 70 71 69 66 68 69 71 70 70 72 72 69 65 64 67
37 26 28 30 31 31 52 75 74 88 87 83 80 81 82 77 73 69 65 61 57 56 58 61 64 66 66 65 64 62 61 62 65
41 32 23 10 10 25 48 72 75 81 79 74 68 73 78 76 65 57 53 57 61 61 63 65 67 66 66 64 62 58 56 56 60
50 56 38 33 24 32 33 56 64 64 61 61 62 57 59 60 60 59 59 59 58 57 56 59 61 59 59 58 52 49 50 51 54
44 53 58 59 47 37 39 43 43 45 52 55 53 53 49 49 50 49 52 51 55 56 56 57 57 57 57 54 50 50 49 52 56
39 47 60 62 65 64 57 42 34 32 36 36 40 45 47 51 52 53 52 50 50 50 53 55 56 52 51 47 47 45 41 42 47
28 35 44 51 61 66 65 55 47 37 29 28 35 38 38 42 45 42 44 47 49 51 51 50 50 49 46 44 45 42 31 30 35
24 29 33 38 41 48 53 53 48 42 34 29 30 30 25 22 19 42 51 50 49 49 51 52 50 49 48 47 49 43 38 38 37
23 19 23 27 32 34 33 38 40 37 31 27 24 19 24 21 5 22 34 34 33 37 40 42 46 49 52 54 51 45 40 39 39
Wind_Direction_500mb
213 212 213 211 208 208 208 212 217 223 222 219 219 219 221 224 228 233 237 240 243 247 253 254 253 253 253 241 236 235 247 258 261
218 213 212 212 209 209 210 215 217 223 226 222 221 222 223 225 227 231 235 237 239 244 248 252 250 244 244 234 231 235 245 253 260
224 218 212 213 212 211 211 217 222 223 225 224 222 223 225 229 230 231 234 239 240 242 244 247 246 242 237 235 230 233 244 254 258
225 214 210 209 211 211 212 214 215 220 222 222 221 219 220 224 228 232 236 238 239 242 243 243 242 242 238 237 234 232 242 250 258
242 232 219 210 210 208 207 207 208 217 220 220 219 217 223 226 228 228 230 233 234 237 239 240 242 240 238 239 236 233 235 243 250
264 241 226 217 209 208 206 206 209 214 219 222 220 221 222 226 228 231 230 232 234 234 236 237 238 240 238 238 240 238 238 240 244
304 256 222 215 212 210 209 208 210 215 218 218 221 223 224 225 228 230 232 232 233 233 233 235 237 239 240 240 240 241 240 240 243
307 298 272 231 220 213 214 210 211 215 217 217 217 221 224 225 226 228 230 232 231 231 233 233 238 242 243 242 242 242 241 242 246
317 306 300 275 243 223 213 214 216 217 217 219 219 218 220 221 223 225 228 230 231 232 232 234 237 241 243 244 244 245 245 246 248
325 310 298 281 258 229 226 221 221 218 220 219 222 219 216 216 217 221 225 228 230 233 234 235 236 239 242 243 245 246 248 249 250
330 321 307 290 271 249 225 221 214 215 209 216 219 219 217 215 216 219 221 224 227 229 233 234 236 238 241 244 245 247 248 250 252
339 319 305 292 273 251 223 210 208 218 211 211 216 220 218 215 214 216 219 221 224 229 234 237 239 241 243 244 246 247 249 249 252
1 335 316 296 279 224 205 200 194 210 210 212 212 216 218 218 219 219 222 224 226 229 233 236 239 241 241 244 247 247 247 247 249
25 22 18 360 117 161 188 190 195 205 211 215 215 213 216 218 219 219 219 220 223 228 232 236 239 243 246 248 248 247 245 242 243
34 39 55 56 88 133 151 178 199 205 210 215 217 216 217 220 223 223 226 228 232 234 234 237 241 242 244 246 243 240 238 238 240
32 40 54 72 77 110 134 151 170 186 198 210 212 214 214 218 218 218 222 224 227 231 232 233 235 237 239 242 243 244 239 236 239
27 35 49 60 70 78 86 104 149 177 189 203 209 215 214 214 213 214 218 221 223 227 231 230 229 230 233 238 242 244 242 241 240
16 21 41 50 58 65 67 79 91 109 137 168 189 198 209 205 205 211 220 221 226 229 233 235 235 236 238 239 244 248 248 249 243
345 4 16 32 44 52 59 65 71 82 99 121 133 144 142 140 197 227 223 227 225 227 229 235 239 239 239 244 247 247 240 238 239
343 344 357 8 19 22 31 49 56 60 70 81 96 115 137 146 184 208 206 207 207 220 227 231 235 238 241 246 248 245 237 233 233
Wind_Speed_850mb
59 70 77 80 82 81 83 88 94 97 96 92 89 83 82 78 72 68 62 61 56 44 41 42 44 43 37 34 29 22 19 18 18
50 65 74 82 83 84 86 91 93 96 99 94 93 91 83 81 76 72 65 61 58 55 44 38 37 39 35 35 35 31 27 27 23
48 56 64 70 77 83 90 93 90 89 91 92 92 92 90 87 82 76 71 66 62 62 51 41 37 39 41 37 37 36 34 33 30
48 49 58 71 79 87 93 91 92 92 89 87 90 88 86 84 81 78 77 73 65 62 58 49 45 42 44 43 41 41 39 34 33
46 50 55 66 73 73 76 88 89 101 97 93 90 85 86 85 82 79 75 75 67 60 60 55 49 48 49 51 49 48 47 43 38
21 36 43 46 53 72 85 92 95 102 103 102 96 95 92 88 85 84 80 75 70 62 59 58 55 56 56 55 56 56 55 52 47
13 12 32 43 54 71 81 87 96 100 101 98 100 101 99 94 92 86 80 74 71 65 60 58 59 59 61 60 59 60 60 59 55
24 20 19 30 52 69 85 85 90 95 96 98 94 98 98 97 86 80 79 80 73 65 64 61 61 61 62 64 66 65 65 65 64
22 28 29 28 39 58 78 87 97 100 100 98 92 94 91 85 81 79 78 78 76 71 64 64 64 66 66 67 70 71 71 68 68
29 31 33 33 35 54 77 77 85 95 101 96 96 91 82 80 77 75 73 74 74 74 73 67 69 70 71 74 74 72 72 72 73
36 38 42 46 42 43 72 77 73 82 82 96 96 92 83 76 75 72 71 71 73 72 74 72 73 73 74 74 75 73 70 70 72
33 33 41 47 47 51 60 74 85 83 85 92 88 88 85 77 72 70 70 71 69 66 68 69 71 70 70 72 72 69 65 64 67
37 26 28 30 31 31 52 75 74 88 87 83 80 81 82 77 73 69 65 61 57 56 58 61 64 66 66 65 64 62 61 62 65
41 32 23 10 10 25 48 72 75 81 79 74 68 73 78 76 65 57 53 57 61 61 63 65 67 66 66 64 62 58 56 56 60
50 56 38 33 24 32 33 56 64 64 61 61 62 57 59 60 60 59 59 59 58 57 56 59 61 59 59 58 52 49 50 51 54
44 53 58 59 47 37 39 43 43 45 52 55 53 53 49 49 50 49 52 51 55 56 56 57 57 57 57 54 50 50 49 52 56
39 47 60 62 65 64 57 42 34 32 36 36 40 45 47 51 52 53 52 50 50 50 53 55 56 52 51 47 47 45 41 42 47
28 35 44 51 61 66 65 55 47 37 29 28 35 38 38 42 45 42 44 47 49 51 51 50 50 49 46 44 45 42 31 30 35
24 29 33 38 41 48 53 53 48 42 34 29 30 30 25 22 19 42 51 50 49 49 51 52 50 49 48 47 49 43 38 38 37
23 19 23 27 32 34 33 38 40 37 31 27 24 19 24 21 5 22 34 34 33 37 40 42 46 49 52 54 51 45 40 39 39
Wind_Direction_850mb
213 212 213 211 208 208 208 212 217 223 222 219 219 219 221 224 228 233 237 240 243 247 253 254 253 253 253 241 236 235 247 258 261
218 213 212 212 209 209 210 215 217 223 226 222 221 222 223 225 227 231 235 237 239 244 248 252 250 244 244 234 231 235 245 253 260
224 218 212 213 212 211 211 217 222 223 225 224 222 223 225 229 230 231 234 239 240 242 244 247 246 242 237 235 230 233 244 254 258
225 214 210 209 211 211 212 214 215 220 222 222 221 219 220 224 228 232 236 238 239 242 243 243 242 242 238 237 234 232 242 250 258
242 232 219 210 210 208 207 207 208 217 220 220 219 217 223 226 228 228 230 233 234 237 239 240 242 240 238 239 236 233 235 243 250
264 241 226 217 209 208 206 206 209 214 219 222 220 221 222 226 228 231 230 232 234 234 236 237 238 240 238 238 240 238 238 240 244
304 256 222 215 212 210 209 208 210 215 218 218 221 223 224 225 228 230 232 232 233 233 233 235 237 239 240 240 240 241 240 240 243
307 298 272 231 220 213 214 210 211 215 217 217 217 221 224 225 226 228 230 232 231 231 233 233 238 242 243 242 242 242 241 242 246
317 306 300 275 243 223 213 214 216 217 217 219 219 218 220 221 223 225 228 230 231 232 232 234 237 241 243 244 244 245 245 246 248
325 310 298 281 258 229 226 221 221 218 220 219 222 219 216 216 217 221 225 228 230 233 234 235 236 239 242 243 245 246 248 249 250
330 321 307 290 271 249 225 221 214 215 209 216 219 219 217 215 216 219 221 224 227 229 233 234 236 238 241 244 245 247 248 250 252
339 319 305 292 273 251 223 210 208 218 211 211 216 220 218 215 214 216 219 221 224 229 234 237 239 241 243 244 246 247 249 249 252
1 335 316 296 279 224 205 200 194 210 210 212 212 216 218 218 219 219 222 224 226 229 233 236 239 241 241 244 247 247 247 247 249
25 22 18 360 117 161 188 190 195 205 211 215 215 213 216 218 219 219 219 220 223 228 232 236 239 243 246 248 248 247 245 242 243
34 39 55 56 88 133 151 178 199 205 210 215 217 216 217 220 223 223 226 228 232 234 234 237 241 242 244 246 243 240 238 238 240
32 40 54 72 77 110 134 151 170 186 198 210 212 214 214 218 218 218 222 224 227 231 232 233 235 237 239 242 243 244 239 236 239
27 35 49 60 70 78 86 104 149 177 189 203 209 215 214 214 213 214 218 221 223 227 231 230 229 230 233 238 242 244 242 241 240
16 21 41 50 58 65 67 79 91 109 137 168 189 198 209 205 205 211 220 221 226 229 233 235 235 236 238 239 244 248 248 249 243
345 4 16 32 44 52 59 65 71 82 99 121 133 144 142 140 197 227 223 227 225 227 229 235 239 239 239 244 247 247 240 238 239
343 344 357 8 19 22 31 49 56 60 70 81 96 115 137 146 184 208 206 207 207 220 227 231 235 238 241 246 248 245 237 233 233